Lid_Strength_Index
-1 -1 -2 -2 -2 -1 1 2 2 1 1 2 2 1 1 -0 0 2 4 1 -0 -2 -1 2 2 2 3 5 5 6 11 13 12 11 10 8 8 7 6 7 6 5 6 4 2
-2 -2 -2 -2 -2 -2 -1 -1 1 2 2 2 1 2 2 1 4 5 1 -3 -3 -2 2 4 5 4 6 6 6 8 12 11 8 9 10 7 8 7 7 8 8 6 4 3 3
-2 -2 -1 -1 -1 -1 -2 -1 -1 -1 0 2 2 2 2 3 7 7 0 -2 -2 -2 1 1 3 4 7 6 7 8 11 9 8 7 6 7 8 6 7 9 7 7 6 4 4
-1 -1 -1 -1 -1 -1 -2 -1 -1 -2 -2 -1 -1 1 1 2 17 4 1 0 -2 -1 1 3 4 7 8 9 6 10 7 7 7 6 7 8 7 8 7 6 5 5 4 4 4
-0 -1 -1 -1 -1 -1 -1 -2 -2 -2 -1 -2 -1 -1 2 6 6 1 0 -1 -0 1 3 4 6 7 9 8 7 9 8 7 6 6 7 6 8 8 7 6 5 4 4 4 4
-1 -1 -1 -1 -1 -1 -1 -2 -1 -1 -1 -2 -1 -1 4 10 2 1 1 0 1 2 3 3 5 5 7 8 9 8 8 8 6 7 7 8 8 7 7 6 7 6 5 5 4
-1 -1 -1 -1 -1 -1 -1 -1 -2 -1 -2 -1 -1 2 6 7 3 2 2 1 1 2 4 3 3 5 6 8 6 7 10 8 8 7 8 7 10 9 6 6 7 7 7 6 5
-1 -1 -1 -1 -1 -1 -1 -1 -1 -1 -2 -2 -1 3 8 3 4 3 2 2 1 1 2 2 2 4 6 6 7 10 10 14 9 8 7 8 13 8 6 7 7 8 8 8 6
-1 -1 -1 -1 -1 -1 -1 -1 -1 -1 -2 -2 2 5 9 2 6 4 3 2 2 2 2 2 3 6 7 10 12 12 15 14 11 8 8 9 12 8 6 8 9 9 9 8 7
-0 -0 -1 -1 -1 -1 -1 -1 -1 -1 -1 -0 2 7 7 8 5 4 3 3 4 4 5 6 6 10 10 12 17 15 15 13 14 10 10 11 11 9 8 8 8 9 8 8 8
0 1 0 -0 -0 -1 -0 1 4 5 3 8 7 8 6 4 3 5 3 4 4 6 10 8 11 13 11 10 10 11 13 13 12 10 10 12 12 10 9 10 10 10 9 8 7
0 1 1 0 0 -0 0 4 4 3 8 5 5 6 5 5 7 6 4 7 7 10 9 11 13 10 8 9 10 11 13 14 11 10 11 12 13 11 10 10 9 9 10 9 9
-1 -0 1 1 1 2 2 3 0 1 8 7 5 6 6 5 8 7 5 6 9 11 11 13 11 8 9 10 12 12 13 13 12 11 12 13 15 13 11 10 9 8 8 8 8
-1 -1 -1 -0 3 3 5 2 0 1 12 11 8 6 5 5 9 5 5 6 8 11 10 11 9 9 10 11 10 14 10 10 11 14 17 13 20 15 12 12 10 9 9 9 9
-1 -1 -1 -1 4 6 4 1 0 3 20 10 8 3 4 8 8 8 4 6 10 10 10 12 11 11 12 11 9 12 9 10 11 14 15 15 18 17 13 13 12 11 10 9 9
-1 -1 -1 1 3 3 2 1 2 14 20 12 8 9 9 8 9 8 7 5 6 9 9 11 8 9 10 9 9 8 10 11 11 13 20 16 16 20 15 13 12 11 10 9 10
-1 -1 0 2 6 2 1 5 14 18 10 13 12 10 10 11 10 9 10 11 13 15 15 13 11 9 9 11 10 10 13 20 19 19 21 15 16 17 13 12 11 11 10 10 9
-1 -1 -0 1 2 2 3 10 17 13 13 10 10 10 13 10 10 10 11 12 10 12 14 16 17 11 9 11 12 12 12 18 22 21 19 15 18 16 11 9 10 10 9 8 9
-1 1 2 1 1 2 8 15 15 13 10 12 11 14 13 11 11 11 12 13 11 11 15 15 16 10 9 9 9 12 14 11 16 20 20 18 16 13 11 10 10 9 9 9 9
2 3 3 1 1 4 10 14 12 9 9 10 15 13 15 13 13 13 13 11 11 9 11 12 16 11 10 9 9 10 9 15 17 24 24 20 19 17 14 12 11 10 10 9 9
3 7 3 0 2 7 14 14 12 9 10 11 12 13 13 14 13 13 13 11 10 10 9 12 14 16 11 12 13 12 13 13 13 16 19 21 20 15 12 11 11 11 9 10 10
4 10 3 1 9 9 12 13 9 10 9 11 11 11 12 12 13 13 13 11 8 8 11 11 14 16 14 11 9 9 12 12 16 17 16 16 18 13 12 12 10 10 9 10 9
9 8 3 4 13 12 14 14 11 11 10 10 12 11 10 12 14 12 11 8 8 9 11 10 16 17 16 13 12 13 12 11 11 13 16 19 17 12 11 12 10 10 10 10 10
9 12 7 7 9 12 14 15 12 8 10 9 11 10 11 12 10 12 11 9 8 9 7 8 13 15 17 15 13 14 12 12 12 16 15 15 15 13 13 12 11 10 10 10 11
10 12 13 13 13 12 12 14 14 13 9 8 12 11 11 14 13 13 11 9 9 7 8 9 14 14 13 13 13 13 13 12 13 12 15 14 14 12 11 10 10 10 10 10 10
11 11 13 15 11 12 12 13 13 12 10 11 11 10 10 13 13 13 11 10 11 9 9 8 13 14 17 13 13 14 12 12 12 12 12 12 13 10 9 9 10 10 9 9 9
9 8 10 12 12 12 13 12 12 10 10 8 9 11 12 11 10 8 7 7 8 9 10 11 12 14 17 15 15 18 14 13 12 10 11 13 12 9 10 9 9 10 9 9 9